Terug naar catalogus

HULIANWANG DIGUI-142

ActiefCommunicatieLEO
NORAD 67440·PAYLOAD·🇨🇳 China

Gelanceerd Jan 13, 2026 vanaf Wenchang Space Launch Site

Loading…

Volgende Passages (komende 24 uur)

TLE

VersSource: Space-Track

Epoch: Sep 14, 2026, 16:16 UTC

1 67440U 26007F   26257.67781655 -.00000080  00000-0  95974-4 0  9990
2 67440  50.0113 124.8550 0000434   3.9182 356.1694 13.29330297 32695

Volg HULIANWANG DIGUI-142 in realtime met AllMySat

Download on the App Store